User: anonymous   Login
Location: *
(33.3200°N, 8.3381°W)
Time: 17:36:53
(UTC+00:00)
Language:

SL-8 Rocket - Orbit

View from above orbital plane
View from above orbital plane
View from above satellite
View from above satellite

Ground track
Ground track

The orbit data is extracted from the following two-line orbital elements,

1 21088U 91006B   20184.79875221  .00000014  00000-0 -17125-5 0  9998
2 21088  82.9430 273.8039 0023986  88.8047  26.7886 13.77149916478590
Epoch (UTC): 02 July 2020 19:10:12
Eccentricity: 0.0023986
inclination: 82.9430°
perigee height: 956 km
apogee height: 991 km
right ascension of ascending node: 273.8039°
argument of perigee: 88.8047°
revolutions per day: 13.77149916
mean anomaly at epoch: 26.7886°
orbit number at epoch: 47859

The dashed part of the orbit path shows where the satellite is in the earth's shadow,  

DLR